Weather History for LFSO - December, 2012

Change the Weather History Date:

Sunday, December 23, 2012

  Actual Average Record
Temperature  
Mean Temperature 48 °F -  
Max Temperature 54 °F 37 °F 54 °F (2012)
Min Temperature 43 °F 30 °F 14 °F (2001)
Degree Days  
Heating Degree Days 16    
Moisture  
Dew Point 48 °F    
Average Humidity 84    
Maximum Humidity 100    
Minimum Humidity 70    
Precipitation  
Precipitation 0.04 in - - ()
Sea Level Pressure  
Sea Level Pressure 29.94 in    
Wind  
Wind Speed 16 mph ()    
Max Wind Speed 23 mph    
Max Gust Speed 36 mph    
Visibility 5.9 miles    
Events Rain    
Averages and records for this station are not official NWS values.
T = Trace of Precipitation, MM = Missing Value Source: Averaged Metar Reports

Daily Weather History Graph

Daily Weather History Graph

Search for Another Location

Airport or City:

Trip Planner

Search our weather history database for the weather conditions in past years. The results will help you decide how hot, cold, wet, or windy it might be!

Date:

Astronomy

Dec. 23, 2012 Rise Set
Actual Time 8:26 AM CET 4:44 PM CET
Civil Twilight 7:49 AM CET 5:21 PM CET
Nautical Twilight 7:09 AM CET 6:01 PM CET
Astronomical Twilight 6:31 AM CET 6:39 PM CET
Moon 1:36 PM CET (12/23) 3:42 AM CET (12/23)
Length of Visible Light 9h 31m
Length of Day
8h 17m
Waxing Gibbous, 79% of the Moon is Illuminated
Dec 23
Waxing Gibbous
Dec 28
Full
Jan 5
Last Quarter
Jan 11
New
Jan 19
First Quarter

Hourly Weather History & Observations

Time (CET) Temp. Dew Point Humidity Pressure Visibility Wind Dir Wind Speed Gust Speed Precip Events Conditions
12:00 AM 51.8 °F 51.8 °F 100% 29.86 in 6.2 mi WSW 17.3 mph - N/A Rain Light Rain
12:30 AM 53.6 °F 51.8 °F 94% 29.89 in 6.2 mi WSW 19.6 mph - N/A   Light Drizzle
1:00 AM 52 °F 51 °F 93% 29.89 in 3 mi WSW 17.3 mph - - Rain Light Drizzle
1:00 AM 51.8 °F 50.0 °F 94% 29.86 in 3.1 mi WSW 17.3 mph - N/A   Light Drizzle
1:30 AM 53.6 °F 50.0 °F 88% 29.89 in 6.2 mi WSW 16.1 mph - N/A   Overcast
2:00 AM 51.8 °F 50.0 °F 94% 29.89 in - SW 16.1 mph - N/A Rain Light Rain
2:30 AM 51.8 °F 50.0 °F 94% 29.89 in 6.2 mi SW 15.0 mph - N/A   Overcast
3:00 AM 51.8 °F 50.0 °F 94% 29.92 in 2.2 mi SW 12.7 mph - N/A   Light Drizzle
3:30 AM 51.8 °F 50.0 °F 94% 29.92 in 3.7 mi WSW 18.4 mph - N/A   Light Drizzle
4:00 AM 51.8 °F 50.0 °F 94% 29.92 in 6.2 mi SW 16.1 mph - N/A   Light Drizzle
4:30 AM 51.8 °F 50.0 °F 94% 29.92 in 3.7 mi SW 17.3 mph - N/A Rain Light Rain
5:00 AM 51.8 °F 48.2 °F 88% 29.89 in 6.2 mi SW 17.3 mph - N/A   Mostly Cloudy
5:30 AM 51.8 °F 50.0 °F 94% 29.92 in 6.2 mi SW 19.6 mph - N/A   Overcast
6:00 AM 51.8 °F 48.2 °F 88% 29.89 in 6.2 mi SW 20.7 mph - N/A   Overcast
6:30 AM 51.8 °F 48.2 °F 88% 29.92 in 6.2 mi SW 23.0 mph - N/A   Overcast
7:00 AM 53 °F 49 °F 80% 29.94 in 37 mi SW 19.6 mph - -   Clear
7:00 AM 53.6 °F 48.2 °F 82% 29.92 in 6.2 mi SW 19.6 mph - N/A   Overcast
7:30 AM 53.6 °F 48.2 °F 82% 29.92 in 6.2 mi SW 19.6 mph - N/A   Overcast
8:00 AM 53.6 °F 48.2 °F 82% 29.92 in 6.2 mi SW 19.6 mph - N/A   Overcast
8:30 AM 53.6 °F 48.2 °F 82% 29.95 in 6.2 mi SSW 17.3 mph - N/A   Mostly Cloudy
9:00 AM 53.6 °F 48.2 °F 82% 29.95 in 6.2 mi SW 19.6 mph - N/A   Overcast
9:30 AM 53.6 °F 48.2 °F 82% 29.95 in 6.2 mi SW 15.0 mph - N/A   Overcast
10:00 AM 53.6 °F 48.2 °F 82% 29.95 in 6.2 mi SW 16.1 mph - N/A   Overcast
10:30 AM 53.6 °F 48.2 °F 82% 29.95 in 6.2 mi SW 15.0 mph - N/A   Overcast
11:00 AM 53.6 °F 50.0 °F 88% 29.98 in 6.2 mi SW 18.4 mph - N/A   Overcast
11:30 AM 53.6 °F 48.2 °F 82% 29.98 in 6.2 mi SW 20.7 mph - N/A   Mostly Cloudy
12:00 PM 55.4 °F 48.2 °F 77% 29.95 in 6.2 mi SW 18.4 mph - N/A   Mostly Cloudy
12:30 PM 55.4 °F 48.2 °F 77% 29.95 in 6.2 mi SW 20.7 mph 35.7 mph N/A   Overcast
1:00 PM 55 °F 48 °F 70% 29.96 in 37 mi SW 23.0 mph - -   Clear
1:00 PM 55.4 °F 48.2 °F 77% 29.95 in 6.2 mi SW 23.0 mph - N/A   Overcast
1:30 PM 53.6 °F 48.2 °F 82% 29.95 in 6.2 mi SW 18.4 mph - N/A   Overcast
2:00 PM 53.6 °F 48.2 °F 82% 29.95 in 6.2 mi SW 17.3 mph - N/A   Overcast
2:30 PM 53.6 °F 48.2 °F 82% 29.95 in 6.2 mi SW 16.1 mph - N/A   Overcast
3:00 PM 53.6 °F 46.4 °F 77% 29.95 in 6.2 mi SW 16.1 mph - N/A   Overcast
3:30 PM 53.6 °F 48.2 °F 82% 29.95 in 6.2 mi SSW 12.7 mph - N/A   Overcast
4:00 PM 53.6 °F 48.2 °F 82% 29.95 in 6.2 mi SW 13.8 mph - N/A   Overcast
4:30 PM 53.6 °F 46.4 °F 77% 29.95 in 6.2 mi SSW 13.8 mph - N/A   Overcast
5:00 PM 53.6 °F 48.2 °F 82% 29.95 in 6.2 mi SSW 16.1 mph - N/A   Overcast
5:30 PM 53.6 °F 48.2 °F 82% 29.95 in 6.2 mi SSW 18.4 mph - N/A   Overcast
6:00 PM 53.6 °F 48.2 °F 82% 29.95 in 6.2 mi SSW 19.6 mph - N/A   Overcast
6:30 PM 53.6 °F 46.4 °F 77% 29.95 in 6.2 mi SSW 16.1 mph - N/A   Overcast
7:00 PM 53 °F 47 °F 73% 29.98 in 37 mi SSW 13.8 mph - -   Clear
7:00 PM 53.6 °F 46.4 °F 77% 29.95 in 6.2 mi SSW 13.8 mph - N/A   Mostly Cloudy
7:30 PM 51.8 °F 46.4 °F 82% 29.98 in 6.2 mi SSW 18.4 mph - N/A   Overcast
8:00 PM 51.8 °F 46.4 °F 82% 29.98 in 6.2 mi SSW 19.6 mph - N/A   Unknown
8:30 PM 51.8 °F 46.4 °F 82% 29.98 in 6.2 mi SSW 18.4 mph - N/A   Unknown
10:30 PM 51.8 °F 46.4 °F 82% 29.98 in 6.2 mi SSW 12.7 mph - N/A   Unknown
11:00 PM 51.8 °F 46.4 °F 82% 29.98 in 6.2 mi SSW 12.7 mph - N/A   Mostly Cloudy
11:30 PM 51.8 °F 46.4 °F 82% 29.98 in 6.2 mi SSW 10.4 mph - N/A   Partly Cloudy